TimeMST,TemperatureF,Dew PointF,Humidity,Sea Level PressureIn,VisibilityMPH,Wind Direction,Wind SpeedMPH,Gust SpeedMPH,PrecipitationIn,Events,Conditions,WindDirDegrees,DateUTC
12:53 AM,54.0,30.9,41,29.49,10.0,NNW,19.6,41.4,N/A,,Overcast,330,2013-12-03 07:53:00
1:53 AM,55.0,30.0,38,29.49,10.0,NW,16.1,26.5,0.00,,Overcast,320,2013-12-03 08:53:00
2:53 AM,46.9,28.9,50,29.49,10.0,NNW,5.8,-,N/A,,Clear,330,2013-12-03 09:53:00
3:53 AM,43.0,27.0,53,29.51,10.0,WSW,9.2,-,N/A,,Clear,250,2013-12-03 10:53:00
4:53 AM,39.0,25.0,57,29.52,10.0,WSW,8.1,-,N/A,,Clear,250,2013-12-03 11:53:00
5:53 AM,34.0,24.1,67,29.53,10.0,Variable,4.6,-,N/A,,Clear,0,2013-12-03 12:53:00
6:53 AM,30.0,24.1,79,29.55,10.0,SSW,3.5,-,N/A,,Clear,210,2013-12-03 13:53:00
7:53 AM,37.9,28.0,68,29.55,10.0,Calm,Calm,-,N/A,,Mostly Cloudy,0,2013-12-03 14:53:00
8:53 AM,43.0,28.0,56,29.55,10.0,North,5.8,-,N/A,,Clear,360,2013-12-03 15:53:00
9:53 AM,46.9,27.0,46,29.56,10.0,NE,4.6,-,N/A,,Clear,50,2013-12-03 16:53:00
10:53 AM,48.9,28.0,44,29.55,10.0,ENE,5.8,-,N/A,,Mostly Cloudy,70,2013-12-03 17:53:00
11:53 AM,39.9,28.9,65,29.56,10.0,NNE,17.3,-,N/A,,Mostly Cloudy,30,2013-12-03 18:53:00
12:53 PM,37.9,30.0,73,29.54,10.0,NE,18.4,-,N/A,,Clear,50,2013-12-03 19:53:00
1:53 PM,35.1,28.9,78,29.57,10.0,NNE,20.7,-,N/A,,Mostly Cloudy,20,2013-12-03 20:53:00
2:08 PM,33.8,28.4,81,29.57,10.0,North,23.0,29.9,N/A,,Overcast,10,2013-12-03 21:08:00
2:53 PM,33.1,28.0,82,29.63,10.0,North,25.3,31.1,N/A,,Overcast,10,2013-12-03 21:53:00
3:25 PM,32.0,26.6,80,29.59,10.0,NNE,26.5,33.4,N/A,,Overcast,20,2013-12-03 22:25:00
3:37 PM,32.0,24.8,75,29.59,10.0,NNE,25.3,32.2,N/A,,Overcast,20,2013-12-03 22:37:00
3:53 PM,30.9,24.1,76,29.64,10.0,NNE,23.0,33.4,N/A,,Overcast,20,2013-12-03 22:53:00
4:53 PM,27.0,19.9,75,29.69,10.0,North,18.4,28.8,N/A,,Overcast,10,2013-12-03 23:53:00
5:53 PM,24.1,17.1,75,29.75,10.0,North,19.6,27.6,N/A,,Mostly Cloudy,10,2013-12-04 00:53:00
6:08 PM,24.8,17.6,74,29.67,10.0,North,18.4,-,N/A,,Partly Cloudy,360,2013-12-04 01:08:00
6:53 PM,24.1,16.0,71,29.81,10.0,North,19.6,27.6,N/A,,Mostly Cloudy,360,2013-12-04 01:53:00
7:11 PM,24.8,15.8,69,29.73,10.0,North,21.9,28.8,N/A,,Overcast,360,2013-12-04 02:11:00
7:53 PM,24.1,15.1,69,29.82,10.0,North,20.7,26.5,N/A,,Overcast,360,2013-12-04 02:53:00
8:53 PM,21.9,12.9,68,29.83,10.0,North,26.5,32.2,N/A,,Overcast,360,2013-12-04 03:53:00
9:53 PM,21.0,10.9,65,29.83,10.0,North,26.5,34.5,N/A,,Overcast,360,2013-12-04 04:53:00
10:53 PM,19.0,12.9,77,29.83,7.0,North,23.0,31.1,N/A,,Overcast,10,2013-12-04 05:53:00
11:06 PM,17.6,14.0,86,29.76,4.0,North,23.0,29.9,N/A,,Overcast,360,2013-12-04 06:06:00
11:14 PM,17.6,14.0,86,29.76,4.0,North,24.2,31.1,0.00,Rain,Light Freezing Rain,360,2013-12-04 06:14:00
11:37 PM,17.6,12.2,79,29.76,8.0,North,21.9,31.1,0.00,Rain,Light Freezing Rain,360,2013-12-04 06:37:00
11:45 PM,17.6,12.2,79,29.76,8.0,North,23.0,-,0.00,Rain,Light Freezing Rain,360,2013-12-04 06:45:00
11:53 PM,18.0,12.9,81,29.84,9.0,North,21.9,29.9,0.00,,Overcast,360,2013-12-04 06:53:00